EW6612 Weather Reports


Display with metric or nautical units.
time (UTC)temp
F
wind
direction
speed
MPH
gust
MPH
rain 1hr
in
rain 24hr
in
rain mn
in
humidity
%
barometer
mb
20200226153820 60 274 11.0 20.0 0.00 0.00 0.00 55 1027.1
20200226152902 60 326 10.0 19.0 0.00 0.00 0.00 56 1027.0
20200226151843 60 332 10.0 18.0 0.00 0.00 0.00 57 1026.9
20200226150825 60 355 10.0 18.0 0.00 0.00 0.00 56 1026.9
20200226145909 60 281 10.0 19.0 0.00 0.00 0.00 58 1026.9
20200226144850 61 299 12.0 20.0 0.00 0.00 0.00 56 1026.9
20200226143836 61 336 10.0 22.0 0.00 0.00 0.00 57 1026.8
20200226142823 60 355 10.0 19.0 0.00 0.00 0.00 59 1026.9
20200226141900 60 313 7.0 15.0 0.00 0.00 0.00 60 1026.9
20200226140845 59 350 9.0 17.0 0.00 0.00 0.00 62 1027.2
20200226135827 58 305 9.0 17.0 0.00 0.00 0.00 64 1027.4
20200226134809 58 355 10.0 20.0 0.00 0.00 0.00 66 1027.5
20200226133850 58 310 10.0 19.0 0.00 0.00 0.00 68 1027.6
20200226132838 58 313 12.0 20.0 0.00 0.01 0.00 67 1027.8
20200226131816 59 12 13.0 25.0 0.00 0.01 0.00 67 1027.9
20200226130801 59 318 11.0 19.0 0.00 0.01 0.00 66 1027.9
20200226125842 59 302 11.0 20.0 0.00 0.01 0.00 65 1028.1
20200226124823 59 336 7.0 14.0 0.00 0.01 0.00 67 1028.1
20200226123813 58 313 8.0 18.0 0.00 0.01 0.00 69 1028.2
20200226122848 58 349 10.0 18.0 0.00 0.01 0.00 70 1028.4
20200226121832 57 315 9.0 14.0 0.00 0.01 0.00 69 1028.6
20200226120812 57 348 10.0 18.0 0.00 0.01 0.00 68 1028.6
20200226115755 58 325 10.0 18.0 0.00 0.01 0.00 69 1028.6
20200226114835 58 320 7.0 13.0 0.00 0.01 0.00 70 1028.6
20200226113818 57 326 9.0 16.0 0.00 0.01 0.00 70 1028.6
20200226112802 57 340 9.0 17.0 0.00 0.01 0.00 70 1028.7
20200226111748 57 349 6.0 13.0 0.00 0.01 0.00 69 1028.8
20200226110825 57 5 8.0 15.0 0.00 0.01 0.00 68 1028.8
20200226105817 57 347 11.0 22.0 0.00 0.01 0.00 67 1028.7
20200226104759 57 316 9.0 19.0 0.00 0.01 0.00 66 1028.9
20200226103742 57 5 8.0 21.0 0.00 0.01 0.00 68 1028.7
20200226102821 57 333 7.0 15.0 0.00 0.01 0.00 74 1028.7
20200226101803 56 5 8.0 12.0 0.00 0.01 0.00 75 1028.7
20200226100749 56 0 10.0 17.0 0.00 0.01 0.00 76 1028.7
20200226095740 55 344 8.0 15.0 0.00 0.01 0.00 79 1028.7
20200226094807 55 331 6.0 11.0 0.00 0.01 0.00 82 1028.7
20200226093752 54 350 5.0 10.0 0.00 0.01 0.00 82 1028.6
20200226092739 54 323 5.0 9.0 0.00 0.01 0.00 84 1028.5
20200226091724 53 355 4.0 9.0 0.00 0.01 0.00 84 1028.4
20200226090800 52 355 4.0 9.0 0.00 0.01 0.00 84 1028.4
20200226085752 52 336 3.0 8.0 0.00 0.01 0.00 84 1028.4
20200226084731 52 11 4.0 12.0 0.00 0.01 0.00 84 1028.1
20200226083719 52 332 4.0 8.0 0.00 0.01 0.00 84 1028.0
20200226082753 52 325 4.0 9.0 0.00 0.01 0.00 84 1028.0
20200226081735 52 348 3.0 6.0 0.00 0.01 0.00 84 1027.8
20200226080721 52 325 5.0 9.0 0.00 0.01 0.00 85 1027.8
20200226075706 51 311 4.0 9.0 0.00 0.01 0.00 85 1027.8
20200226074703 51 317 3.0 8.0 0.00 0.01 0.00 85 1027.7
20200226073726 51 316 3.0 5.0 0.00 0.01 0.00 85 1027.6
20200226072709 51 315 2.0 4.0 0.00 0.01 0.00 85 1027.3
20200226071658 51 315 2.0 5.0 0.00 0.01 0.00 84 1027.3
20200226070658 51 315 3.0 5.0 0.00 0.01 0.00 84 1027.4
20200226065720 51 309 3.0 5.0 0.00 0.01 0.00 83 1027.5
20200226064704 51 321 3.0 5.0 0.00 0.01 0.00 83 1027.7
20200226063740 51 355 3.0 6.0 0.00 0.01 0.00 82 1027.7
20200226062723 51 355 4.0 8.0 0.00 0.01 0.00 82 1027.7
20200226061705 51 341 3.0 6.0 0.00 0.01 0.00 82 1027.6
20200226060647 51 346 4.0 6.0 0.00 0.01 0.00 83 1027.5
20200226055637 51 338 3.0 6.0 0.00 0.01 0.00 84 1027.5
20200226054659 50 321 2.0 5.0 0.00 0.01 0.00 87 1027.3
20200226053639 50 44 0.0 1.0 0.00 0.01 0.00 87 1027.1
20200226052623 50 47 1.0 6.0 0.00 0.01 0.00 87 1027.1
20200226051612 50 305 0.0 0.0 0.00 0.01 0.00 86 1026.9
20200226050641 50 305 0.0 0.0 0.00 0.01 0.00 86 1026.8
20200226045623 50 305 0.0 0.0 0.00 0.01 0.00 86 1026.8
20200226044559 50 305 0.0 0.0 0.00 0.01 0.00 85 1026.9
20200226043637 50 305 0.0 0.0 0.00 0.01 0.00 84 1026.8
20200226042620 50 305 1.0 3.0 0.00 0.01 0.00 83 1026.8
20200226041557 51 304 2.0 3.0 0.00 0.01 0.00 83 1026.9
20200226040534 51 304 2.0 3.0 0.00 0.01 0.00 82 1026.9
20200226035517 51 319 2.0 4.0 0.00 0.01 0.00 82 1026.9
20200226034556 51 319 3.0 5.0 0.00 0.01 0.00 82 1027.0
20200226033536 51 319 3.0 5.0 0.00 0.01 0.00 83 1027.0
20200226032523 51 314 2.0 6.0 0.00 0.01 0.00 85 1027.3
20200226031507 51 306 3.0 5.0 0.00 0.01 0.00 86 1027.4
20200226030549 50 315 1.0 4.0 0.00 0.01 0.00 86 1027.3
20200226025535 50 315 0.0 0.0 0.00 0.01 0.00 86 1027.5
20200226024517 50 315 0.0 0.0 0.00 0.01 0.00 85 1027.7
20200226023457 50 315 0.0 0.0 0.00 0.01 0.00 84 1027.7
20200226022445 51 315 0.0 2.0 0.00 0.01 0.00 84 1027.7
20200226021419 51 315 1.0 3.0 0.00 0.01 0.00 84 1027.9
20200226020458 52 315 0.0 2.0 0.00 0.01 0.00 83 1028.0
20200226015440 52 315 0.0 2.0 0.00 0.01 0.00 82 1028.0
20200226014425 52 315 1.0 3.0 0.00 0.01 0.00 81 1027.9
20200226013410 51 315 2.0 3.0 0.00 0.01 0.00 82 1028.0
20200226012348 51 315 2.0 4.0 0.00 0.01 0.00 82 1028.0
20200226011326 51 315 2.0 4.0 0.00 0.01 0.00 82 1028.0
20200226010407 51 315 2.0 3.0 0.00 0.01 0.00 81 1028.0
20200226005355 51 315 2.0 4.0 0.00 0.01 0.00 80 1028.0
20200226004329 51 315 1.0 5.0 0.00 0.01 0.00 81 1028.2
20200226003307 51 313 2.0 4.0 0.00 0.01 0.00 81 1028.3
20200226002348 51 313 2.0 4.0 0.00 0.01 0.00 81 1028.3
20200226001332 52 313 2.0 4.0 0.00 0.01 0.00 81 1028.4
20200226000320 52 313 2.0 4.0 0.00 0.01 0.00 81 1028.6
20200225235302 52 313 2.0 3.0 0.00 0.01 0.01 80 1028.4
20200225234345 52 313 2.0 3.0 0.00 0.01 0.01 79 1028.5
20200225233325 52 313 2.0 4.0 0.00 0.01 0.01 78 1028.5
20200225232307 53 313 3.0 5.0 0.00 0.01 0.01 78 1028.7
20200225231258 52 340 3.0 5.0 0.00 0.01 0.01 78 1028.8
20200225230332 52 338 4.0 8.0 0.00 0.01 0.01 79 1028.7
20200225225323 52 317 4.0 8.0 0.00 0.01 0.01 79 1028.8
20200225224304 53 308 3.0 6.0 0.00 0.01 0.01 79 1028.7
20200225223246 53 306 3.0 8.0 0.00 0.01 0.01 79 1028.6
20200225222324 53 330 4.0 8.0 0.00 0.01 0.01 79 1028.5
20200225221307 53 5 3.0 8.0 0.00 0.01 0.01 79 1028.4
20200225220247 53 346 5.0 9.0 0.00 0.01 0.01 80 1028.4
20200225215335 53 351 5.0 10.0 0.00 0.01 0.01 82 1028.3
20200225214313 53 5 6.0 12.0 0.00 0.01 0.01 83 1028.2
20200225213257 54 349 4.0 10.0 0.00 0.01 0.01 84 1028.1
20200225212238 54 348 4.0 10.0 0.00 0.01 0.01 84 1028.0
20200225211318 54 331 5.0 10.0 0.00 0.01 0.01 84 1028.0
20200225210259 54 319 5.0 11.0 0.00 0.01 0.01 84 1028.1
20200225205243 54 317 4.0 9.0 0.00 0.01 0.01 85 1028.2
20200225204223 54 294 4.0 8.0 0.00 0.01 0.01 85 1028.1
20200225203308 54 315 4.0 8.0 0.00 0.01 0.01 86 1028.0
20200225202248 54 336 5.0 10.0 0.00 0.01 0.01 87 1027.7
20200225201229 54 320 5.0 9.0 0.00 0.01 0.01 88 1027.7
20200225200311 54 350 5.0 11.0 0.00 0.01 0.01 89 1027.7
20200225195255 54 327 5.0 9.0 0.00 0.01 0.01 89 1027.6
20200225194235 55 334 4.0 10.0 0.00 0.01 0.01 90 1027.6
20200225193219 55 338 6.0 12.0 0.00 0.01 0.01 90 1027.6
20200225192258 55 333 5.0 13.0 0.00 0.01 0.01 90 1027.6
20200225191241 55 320 6.0 11.0 0.00 0.01 0.01 91 1027.4
20200225190226 55 355 7.0 14.0 0.00 0.01 0.01 91 1027.2
20200225185308 55 342 7.0 16.0 0.00 0.01 0.01 91 1027.1
20200225184250 55 305 7.0 14.0 0.00 0.01 0.01 91 1026.9
20200225183232 55 348 7.0 13.0 0.00 0.01 0.01 92 1026.5
20200225182215 55 350 9.0 17.0 0.00 0.01 0.01 92 1026.4
20200225181256 56 338 9.0 15.0 0.00 0.01 0.01 92 1026.3
20200225180240 56 5 7.0 13.0 0.00 0.01 0.01 92 1026.2
20200225175223 56 323 8.0 17.0 0.00 0.01 0.01 92 1026.2
20200225174205 56 0 10.0 16.0 0.00 0.01 0.01 92 1026.1
20200225173247 57 340 9.0 18.0 0.00 0.01 0.01 92 1026.0
20200225172229 57 319 8.0 18.0 0.00 0.01 0.01 92 1026.0
20200225171212 57 344 8.0 18.0 0.00 0.01 0.01 92 1026.0
20200225170158 57 355 7.0 15.0 0.00 0.01 0.01 92 1025.9
20200225165242 57 333 6.0 12.0 0.00 0.01 0.01 92 1025.9
20200225164224 58 355 8.0 17.0 0.00 0.01 0.01 92 1025.8
20200225163209 58 322 9.0 17.0 0.00 0.01 0.01 92 1025.7
20200225162252 58 344 6.0 15.0 0.00 0.01 0.01 92 1025.6
20200225161233 58 327 7.0 14.0 0.00 0.01 0.01 92 1025.6
20200225160218 58 5 8.0 15.0 0.00 0.01 0.01 92 1025.7
20200225155200 58 317 9.0 16.0 0.00 0.01 0.01 92 1025.7